Houghton Lake, MI

9:48 PM EDT on April 27, 2017 (GMT -0400)
Roscommon County

Weather History for KHTL - November, 2013

Change the Weather History Date:

Sunday, November 10, 2013

  Actual Average Record
Temperature  
Mean Temperature 38 °F 37 °F  
Max Temperature 41 °F 45 °F 71 °F (1931)
Min Temperature 35 °F 29 °F 8 °F (1933)
Degree Days  
Heating Degree Days 27 28  
Month to date heating degree days 250 264  
Since 1 July heating degree days 1167 1242  
Moisture  
Dew Point 31 °F    
Average Humidity 75    
Maximum Humidity 85    
Minimum Humidity 64    
Precipitation  
Precipitation 0.06 in 0.07 in 1.28 in (1998)
Month to date precipitation 1.03 0.78  
Year to date precipitation 26.37 25.56  
Snow  
Snow T in 0.20 in 3.00 in (2006)
Month to date snowfall T 1.6  
Since 1 July snowfall T 2.2  
Snow Depth 0.00 in    
Sea Level Pressure  
Sea Level Pressure 30.05 in    
Wind  
Wind Speed 13 mph (WNW)    
Max Wind Speed 24 mph    
Max Gust Speed 35 mph    
Visibility 10 miles    
Events Rain , Snow    
T = Trace of Precipitation, MM = Missing Value Source: NWS Daily Summary

Daily Weather History Graph

Daily Weather History Graph

Search for Another Location

Airport or City:

Trip Planner

Search our weather history database for the weather conditions in past years. The results will help you decide how hot, cold, wet, or windy it might be!

Date:

Astronomy

Nov. 10, 2013 Rise Set
Actual Time 7:28 AM EST 5:16 PM EST
Civil Twilight 6:57 AM EST 5:47 PM EST
Nautical Twilight 6:22 AM EST 6:22 PM EST
Astronomical Twilight 5:48 AM EST 6:56 PM EST
Moon 1:36 PM EST (11/10) No Moon Set
Length of Visible Light 10h 50m
Length of Day
9h 48m
First Quarter, 55% of the Moon is Illuminated
Nov 10
First Quarter
Nov 17
Full
Nov 25
Last Quarter
Dec 2
New
Dec 9
First Quarter

Hourly Weather History & Observations

Time (EST) Temp. Windchill Dew Point Humidity Pressure Visibility Wind Dir Wind Speed Gust Speed Precip Events Conditions
12:03 AM 39.9 °F 31.4 °F 30.9 °F 70% 29.81 in 10.0 mi WNW 16.1 mph 24.2 mph N/A   Overcast
12:53 AM 39.9 °F 31.1 °F 30.0 °F 68% 29.85 in 10.0 mi WNW 17.3 mph 28.8 mph N/A   Overcast
1:53 AM 39.9 °F 31.8 °F 30.0 °F 68% 29.85 in 10.0 mi West 15.0 mph 24.2 mph N/A   Overcast
2:53 AM 39.9 °F 30.2 °F 30.9 °F 70% 29.85 in 10.0 mi West 20.7 mph 31.1 mph 0.00 in   Overcast
3:21 AM 39.9 °F 30.2 °F 30.9 °F 70% 29.84 in 10.0 mi West 20.7 mph 28.8 mph N/A   Overcast
3:53 AM 39.0 °F 29.3 °F 32.0 °F 76% 29.88 in 9.0 mi WNW 19.6 mph 28.8 mph N/A   Overcast
4:15 AM 39.0 °F 29.9 °F 32.0 °F 76% 29.85 in 10.0 mi West 17.3 mph 23.0 mph 0.00 in Rain Light Rain
4:31 AM 39.0 °F 30.3 °F 32.0 °F 76% 29.86 in 10.0 mi West 16.1 mph 26.5 mph 0.00 in   Overcast
4:53 AM 39.0 °F 29.9 °F 32.0 °F 76% 29.89 in 10.0 mi WNW 17.3 mph 26.5 mph 0.00 in   Overcast
5:53 AM 37.9 °F 28.2 °F 32.0 °F 79% 29.92 in 10.0 mi West 18.4 mph 27.6 mph 0.00 in   Overcast
6:53 AM 37.0 °F 27.7 °F 34.0 °F 89% 29.96 in 10.0 mi WNW 16.1 mph 28.8 mph 0.00 in Rain Light Rain
7:53 AM 37.0 °F 27.0 °F 33.1 °F 86% 30.00 in 10.0 mi NW 18.4 mph 27.6 mph 0.00 in   Overcast
8:10 AM 37.0 °F 28.1 °F 33.1 °F 86% 29.98 in 10.0 mi NW 15.0 mph 27.6 mph N/A   Overcast
8:19 AM 37.0 °F 26.4 °F 33.1 °F 86% 29.99 in 10.0 mi NW 20.7 mph 31.1 mph N/A   Mostly Cloudy
8:26 AM 37.0 °F 27.4 °F 33.1 °F 86% 30.00 in 10.0 mi NW 17.3 mph 31.1 mph N/A   Mostly Cloudy
8:53 AM 35.1 °F 28.6 °F 33.1 °F 92% 30.05 in 4.0 mi NW 8.1 mph 23.0 mph 0.02 in Snow Light Snow
9:01 AM 36.0 °F 26.3 °F 34.0 °F 93% 30.02 in 7.0 mi NW 16.1 mph 25.3 mph 0.00 in Snow Light Snow
9:05 AM 36.0 °F 27.1 °F 34.0 °F 93% 30.03 in 9.0 mi NW 13.8 mph 25.3 mph 0.00 in   Overcast
9:23 AM 37.0 °F 28.5 °F 33.1 °F 86% 30.03 in 10.0 mi WNW 13.8 mph 25.3 mph 0.00 in   Overcast
9:53 AM 37.0 °F 27.4 °F 33.1 °F 86% 30.08 in 8.0 mi NW 17.3 mph 33.4 mph 0.00 in Rain Light Rain
10:53 AM 37.9 °F 28.9 °F 33.1 °F 83% 30.12 in 10.0 mi NW 16.1 mph 27.6 mph 0.00 in Rain Light Rain
11:53 AM 39.0 °F 30.6 °F 35.1 °F 86% 30.15 in 8.0 mi NW 15.0 mph - 0.02 in Rain Light Rain
12:17 PM 39.0 °F 31.0 °F 33.1 °F 79% 30.12 in 10.0 mi NW 13.8 mph 25.3 mph 0.00 in   Mostly Cloudy
12:53 PM 36.0 °F 26.7 °F 33.1 °F 89% 30.17 in 7.0 mi NW 15.0 mph 24.2 mph 0.01 in Snow Light Snow
1:46 PM 37.0 °F 28.5 °F 34.0 °F 89% 30.14 in 10.0 mi NW 13.8 mph - 0.01 in   Mostly Cloudy
1:53 PM 37.9 °F 30.0 °F 34.0 °F 86% 30.18 in 10.0 mi NW 12.7 mph - 0.01 in   Mostly Cloudy
2:53 PM 39.0 °F 32.3 °F 30.0 °F 70% 30.19 in 10.0 mi NW 10.4 mph - N/A   Overcast
3:53 PM 39.0 °F 30.6 °F 28.9 °F 67% 30.21 in 10.0 mi WNW 15.0 mph 20.7 mph N/A   Mostly Cloudy
4:53 PM 37.9 °F 32.1 °F 28.9 °F 70% 30.22 in 10.0 mi NW 8.1 mph - N/A   Mostly Cloudy
5:53 PM 37.0 °F 30.4 °F 26.1 °F 65% 30.23 in 10.0 mi WNW 9.2 mph - N/A   Clear
6:53 PM 37.0 °F 32.4 °F 27.0 °F 67% 30.23 in 10.0 mi West 5.8 mph - N/A   Overcast
7:53 PM 37.0 °F 31.6 °F 27.0 °F 67% 30.23 in 10.0 mi WSW 6.9 mph - N/A   Overcast
8:53 PM 36.0 °F 29.6 °F 28.0 °F 73% 30.22 in 10.0 mi WSW 8.1 mph - N/A   Clear
9:53 PM 35.1 °F 27.9 °F 28.0 °F 76% 30.20 in 10.0 mi SW 9.2 mph - N/A   Clear
10:53 PM 35.1 °F 28.6 °F 28.0 °F 76% 30.17 in 10.0 mi SSW 8.1 mph - N/A   Partly Cloudy
11:53 PM 35.1 °F 27.9 °F 28.9 °F 78% 30.15 in 10.0 mi SW 9.2 mph - N/A   Overcast